Meteo Giornale » Osservazioni meteo Svizzera » Payerne

ore: 22:50 - Osservazioni Meteo Payerne
Lat. 46° 49' N Lon. 6° 57' E Alt. 490 metri s.l.m.

coperto Europe/Zurich

13 °C

Coperto

Temp. 24 Ore

11 °C

18 °C

Nord

5.5 Km/h

Dew point 9 °C

Umidità 76 %

Visibilità  10 Km

Il sole sorge alle ore 05:48

Il sole tramonta alle ore 21:08

Data e Ora Cielo e Fenomeni T °C DP °C Um. % Pres. hPa Vis. km Vento km/h
Oggi h: 22:50 coperto Coperto 13 9 76 1018 10 N 5.5
Oggi h: 22:20 nuvoloso Nuvoloso 12 9 81 1017 10 N 3.7
Oggi h: 21:50 poco_nuvoloso Poco Nuvoloso 13 8 71 1017 10 N 0
Oggi h: 21:20 poco_nuvoloso Poco Nuvoloso 15 8 62 1016 10 N 3.7
Oggi h: 20:50 poco_nuvoloso Poco Nuvoloso 15 9 67 1016 10 N 5.5
Oggi h: 20:20 nuvoloso Nuvoloso 17 8 55 1016 10 N 3.7
Oggi h: 19:50 poco_nuvoloso Poco Nuvoloso 17 7 51 1016 10 N 1.8
Oggi h: 19:20 molto_nuvoloso Molto Nuvoloso 18 8 51 1016 10 N 3.7
Oggi h: 18:50 molto_nuvoloso Molto Nuvoloso 17 7 51 1016 10 N 5.5
Oggi h: 18:20 molto_nuvoloso Molto Nuvoloso 17 8 55 1016 10 N 5.5
Oggi h: 17:50 nuvoloso Nuvoloso 18 7 48 1016 10 N 3.7
Oggi h: 17:20 nuvoloso Nuvoloso 18 7 48 1016 10 N 3.7
Oggi h: 16:50 nuvoloso Nuvoloso 18 8 51 1016 10 N 5.5
Oggi h: 16:20 nuvoloso Nuvoloso 18 9 55 1015 10 N 3.7
Oggi h: 15:50 nuvoloso Nuvoloso 17 7 51 1015 10 N 9.3
Oggi h: 15:20 molto_nuvoloso Molto Nuvoloso 17 8 55 1015 10 N 7.4
Oggi h: 14:50 molto_nuvoloso Molto Nuvoloso 17 8 55 1015 10 O/NO 9.3
Oggi h: 14:20 molto_nuvoloso Molto Nuvoloso 17 8 55 1015 10 N 1.8
Oggi h: 13:20 molto_nuvoloso Molto Nuvoloso 17 9 59 1015 10 O 11.1
Oggi h: 12:50 molto_nuvoloso Molto Nuvoloso 16 8 58 1015 10 O 14.8
Oggi h: 12:20 molto_nuvoloso Molto Nuvoloso 15 8 62 1015 10 O/NO 18.5
Oggi h: 11:50 molto_nuvoloso Molto Nuvoloso 15 8 62 1015 10 O 20.3
Oggi h: 11:20 molto_nuvoloso Molto Nuvoloso 16 9 63 1015 10 O 18.5
Oggi h: 10:50 molto_nuvoloso Molto Nuvoloso 15 9 67 1015 10 O 18.5
Oggi h: 10:20 molto_nuvoloso Molto Nuvoloso 14 9 71 1014 10 O 14.8
Oggi h: 09:50 molto_nuvoloso Molto Nuvoloso 14 10 76 1014 10 O 11.1
Oggi h: 09:20 molto_nuvoloso Molto Nuvoloso 13 9 76 1014 10 S/SO 11.1
Oggi h: 08:50 coperto Coperto 13 10 81 1014 10 S/SO 13
Oggi h: 08:20 molto_nuvoloso Molto Nuvoloso 13 9 76 1014 10 S/SO 9.3
Oggi h: 07:50 molto_nuvoloso Molto Nuvoloso 12 9 81 1013 10 S/SO 11.1
Oggi h: 07:20 coperto Coperto 11 9 87 1013 10 S/SO 11.1
Oggi h: 06:50 coperto Coperto 11 9 87 1013 10 S/SO 11.1
Oggi h: 06:20 coperto Coperto 11 9 87 1013 10 S/SO 7.4
Oggi h: 05:50 coperto Coperto 11 9 87 1013 10 S/SO 9.3
Oggi h: 05:20 coperto Coperto 11 9 87 1013 10 S/SO 9.3
Oggi h: 04:50 coperto Coperto 11 9 87 1013 10 S/SO 11.1
Oggi h: 03:50 molto_nuvoloso Molto Nuvoloso 11 9 87 1013 10 N 5.5
Oggi h: 03:20 coperto Coperto 12 8 76 1013 10 O 11.1
Oggi h: 02:50 coperto Coperto 12 9 81 1012 10 O/SO 11.1
Oggi h: 02:20 coperto Coperto 11 10 93 1012 10 S/SO 9.3
Oggi h: 01:50 coperto Coperto 12 10 87 1012 10 SO 9.3
Oggi h: 01:20 coperto Coperto 12 9 81 1012 10 O/SO 11.1
Oggi h: 00:50 coperto Coperto 12 10 87 1012 10 O/SO 9.3
Oggi h: 00:20 coperto Coperto 12 10 87 1012 10 N 5.5
Ieri h: 23:50 coperto Coperto 12 10 87 1012 10 S/SO 7.4